Snowfall_Accumulation
0.9 0.8 1.0 1.0 1.0 1.2 1.6 2.7 4.5 3.7 1.0 0.3 0.3 0.3 0.4 0.3 0.3 0.4 0.3 0.2 0.3 0.4 0.5 0.4 0.3 0.1 0.1 0.1 0.0 0.0 0.0 0.0 0.1 0.1 0.0 0.1 0.1 0.0
1.1 1.2 1.1 1.1 1.2 1.2 1.4 1.7 2.9 4.7 3.4 0.6 0.4 0.3 0.4 0.4 0.3 0.6 0.5 0.2 0.3 0.3 0.3 0.4 0.3 0.2 0.2 0.1 0.1 0.1 0.0 0.0 0.1 0.1 0.1 0.0 0.1 0.1
1.2 1.4 1.6 1.5 1.5 1.4 1.5 1.8 2.2 3.5 4.5 1.2 0.3 0.3 0.4 0.5 0.4 0.4 0.4 0.3 0.4 0.2 0.2 0.3 0.3 0.3 0.3 0.2 0.1 0.1 0.1 0.1 0.1 0.1 0.1 0.0 0.0 0.0
1.5 1.7 1.8 1.8 2.0 1.8 2.0 2.1 2.2 2.7 4.1 2.9 0.8 0.6 0.6 0.5 0.4 0.4 0.3 0.3 0.4 0.2 0.1 0.3 0.4 0.4 0.4 0.5 0.2 0.2 0.2 0.1 0.1 0.1 0.1 0.0 0.0 0.1
1.8 2.2 2.3 2.6 2.8 2.4 2.5 2.5 2.2 1.9 2.6 3.3 1.9 0.8 0.7 0.6 0.5 0.6 0.5 0.5 0.2 0.2 0.2 0.2 0.3 0.4 0.4 0.5 0.5 0.3 0.3 0.2 0.1 0.2 0.2 0.2 0.1 0.1
2.2 2.5 3.0 3.6 4.1 4.2 3.9 3.4 2.6 3.0 3.0 3.6 3.0 1.9 1.5 1.1 1.3 1.5 1.2 0.7 0.5 0.4 0.3 0.2 0.3 0.3 0.4 0.5 0.4 0.5 0.5 0.4 0.4 0.4 0.4 0.3 0.3 0.2
3.2 2.9 2.7 3.2 4.0 5.0 5.9 5.9 5.5 6.4 5.6 5.7 4.8 3.5 2.8 2.7 2.7 2.0 2.3 1.4 0.7 0.4 0.5 0.3 0.3 0.3 0.3 0.2 0.2 0.2 0.7 0.6 0.5 0.6 0.5 0.3 0.3 0.3
4.6 3.7 3.0 2.7 2.9 2.7 3.6 4.3 5.0 7.6 8.6 8.6 7.9 7.0 4.6 3.0 3.0 3.1 3.8 4.2 3.3 0.8 0.9 0.7 0.4 0.5 0.4 0.3 0.2 0.3 0.6 0.7 0.7 0.7 0.6 0.6 0.5 0.5
3.8 3.3 3.1 2.6 2.6 2.6 3.1 2.4 2.8 3.7 5.7 8.0 10.2 8.0 5.5 4.7 4.7 5.4 5.0 5.4 4.0 2.0 2.3 2.8 1.0 1.0 0.8 0.3 0.2 0.4 0.5 0.8 0.9 0.8 0.9 0.8 0.9 0.7
3.0 3.3 3.4 3.3 2.9 3.4 4.2 4.5 4.0 3.7 4.4 6.3 8.4 7.2 5.8 5.5 5.9 7.7 7.4 7.6 4.6 2.4 2.4 4.6 1.7 1.2 0.7 0.5 0.1 0.3 0.5 0.7 1.1 1.1 1.0 1.0 1.1 1.1
2.7 3.8 4.2 3.9 3.6 4.1 6.0 6.5 4.9 3.7 3.1 4.3 5.3 6.0 5.1 5.4 7.5 10.1 13.5 14.4 11.4 4.2 2.7 4.7 2.4 1.7 1.0 0.9 0.4 0.3 0.4 0.5 0.7 0.9 1.1 1.2 1.3 1.3
2.8 3.8 5.6 5.4 5.1 4.6 6.5 7.4 7.0 4.4 3.7 3.8 4.0 4.1 4.3 4.9 5.9 8.9 11.3 14.9 13.6 9.8 4.6 4.1 3.8 4.7 4.6 1.4 0.8 0.5 0.4 0.4 0.5 0.6 0.9 1.1 1.5 1.5
4.3 4.7 5.5 5.2 4.8 4.8 5.6 6.8 7.4 6.3 5.7 5.5 4.8 4.2 4.5 5.1 6.0 7.5 8.9 12.0 14.4 12.0 7.4 7.2 7.7 6.9 8.2 4.8 1.7 0.9 0.7 0.6 0.4 0.4 0.4 0.8 1.1 1.7
5.2 4.3 5.0 5.0 5.0 4.8 4.6 4.2 4.7 5.4 6.2 5.9 5.2 4.2 4.1 4.6 5.6 6.8 9.0 10.2 10.6 10.5 8.1 8.9 12.0 10.1 11.0 8.9 4.7 2.2 1.5 0.8 0.9 0.9 0.7 0.7 0.9 1.2
5.1 6.0 5.3 4.6 4.2 3.5 2.8 3.3 3.6 4.4 5.3 5.6 4.8 3.9 3.6 3.5 4.1 5.4 7.0 8.4 8.9 8.9 7.6 7.0 9.2 9.1 11.4 11.5 6.8 4.2 3.1 2.0 1.6 1.7 1.4 1.5 1.5 1.7
4.2 4.5 4.3 3.3 2.7 2.2 2.0 2.2 2.6 3.7 5.2 5.8 4.7 3.5 3.2 3.7 4.4 5.3 7.0 8.4 10.5 9.7 8.4 6.8 6.8 9.1 11.1 9.0 8.3 6.6 4.8 4.2 3.1 2.6 2.1 2.0 1.8 1.6
6.8 6.5 5.2 4.1 3.5 2.9 2.4 2.1 2.4 3.2 4.2 4.4 4.8 4.7 4.4 4.2 4.8 5.4 7.1 8.9 10.8 10.5 10.2 9.2 9.0 9.4 10.5 10.9 10.5 7.8 5.5 4.6 4.0 3.9 3.4 3.1 2.4 2.1
7.2 7.6 5.5 4.5 4.2 3.9 3.4 3.1 2.8 3.3 3.6 4.1 4.6 4.9 5.3 5.2 5.2 5.2 7.1 9.1 10.3 10.0 10.2 10.2 11.6 13.5 14.0 13.9 11.8 9.3 6.9 5.2 4.5 4.1 4.0 4.5 3.6 2.4
5.8 5.5 4.5 4.4 4.4 4.4 4.3 4.2 3.5 3.4 4.0 4.7 5.0 5.1 5.7 6.2 6.4 6.2 6.8 8.1 9.1 9.5 9.9 10.7 12.7 16.8 19.8 17.2 12.4 9.8 8.5 6.5 5.7 5.0 4.1 4.4 4.7 3.5
3.9 4.4 4.5 4.2 4.8 4.9 4.8 4.5 4.0 4.0 4.5 4.9 5.1 5.0 5.7 6.7 7.1 6.9 7.3 8.5 9.4 10.1 10.5 10.9 12.9 15.5 18.6 16.3 14.0 12.4 8.2 8.2 7.6 7.0 5.2 4.3 3.8 3.2
4.0 4.1 4.2 4.5 4.9 4.7 4.8 4.8 4.9 4.8 4.5 4.8 5.0 4.9 5.3 6.9 7.2 6.6 7.0 7.9 10.0 11.4 11.6 11.6 10.7 12.0 14.4 16.0 17.8 16.2 13.0 8.7 6.7 7.9 7.8 7.7 7.3 6.5
4.5 4.7 4.4 4.4 4.5 4.8 5.0 4.9 4.9 4.4 4.2 4.5 4.8 4.8 5.4 6.4 6.9 6.8 7.4 8.6 9.5 10.2 10.6 10.9 10.3 13.4 17.9 19.9 18.3 15.9 15.0 12.5 11.0 7.2 6.4 7.4 10.6 11.4
5.6 5.5 4.7 4.3 4.5 4.7 4.9 4.9 4.8 4.2 4.1 4.6 5.1 5.2 5.5 6.5 6.7 7.3 7.8 8.3 9.2 9.6 10.3 11.2 12.6 15.0 17.3 17.3 17.5 16.2 14.5 12.3 12.2 11.8 11.8 5.9 4.9 5.2